Weather History for KVJI - October, 2011

Change the Weather History Date:

Thursday, October 27, 2011

  Actual Average (KTRI) Record (KTRI)
Temperature  
Mean Temperature 58 °F 53 °F  
Max Temperature 64 °F 66 °F 83 °F (1939)
Min Temperature 51 °F 40 °F 20 °F (1962)
Degree Days  
Heating Degree Days 8 12  
Month to date heating degree days 231  
Since 1 July heating degree days 284  
Cooling Degree Days 0 0  
Month to date cooling degree days 9  
Year to date cooling degree days 977  
Growing Degree Days 8 (Base 50)    
Moisture  
Dew Point 48 °F    
Average Humidity 72    
Maximum Humidity 94    
Minimum Humidity 59    
Precipitation  
Precipitation 0.06 in 0.08 in 1.21 in (2010)
Month to date precipitation 1.80  
Year to date precipitation 34.24  
Snow  
Snow 0.00 in 0.00 in - ()
Month to date snowfall 0.1  
Since 1 July snowfall 0.1  
Since 1 September snowfall 0.1  
Snow Depth -    
Sea Level Pressure  
Sea Level Pressure 29.89 in    
Wind  
Wind Speed 5 mph (WNW)    
Max Wind Speed 22 mph    
Max Gust Speed 28 mph    
Visibility 10 miles    
Events Rain    
T = Trace of Precipitation, MM = Missing Value Source: NWS Daily Summary

Daily Weather History Graph

Daily Weather History Graph

Search for Another Location

Airport or City:

Trip Planner

Search our weather history database for the weather conditions in past years. The results will help you decide how hot, cold, wet, or windy it might be!

Date:

Astronomy

Oct. 27, 2011 Rise Set
Actual Time 7:46 AM EDT 6:36 PM EDT
Civil Twilight 7:20 AM EDT 7:03 PM EDT
Nautical Twilight 6:49 AM EDT 7:33 PM EDT
Astronomical Twilight 6:19 AM EDT 8:03 PM EDT
Moon 8:44 AM EDT (10/27) 7:08 PM EDT (10/27)
Length of Visible Light 11h 43m
Length of Day
10h 50m
New Moon, 1% of the Moon is Illuminated
Oct 27
New Moon
Nov 2
First Quarter
Nov 10
Full
Nov 18
Last Quarter
Nov 25
New

Hourly Weather History & Observations

Time (EDT) Temp. Dew Point Humidity Pressure Visibility Wind Dir Wind Speed Gust Speed Precip Events Conditions
12:15 AM 59.0 °F 46.4 °F 63% 29.93 in 10.0 mi West 8.1 mph - N/A   Clear
1:15 AM 57.2 °F 46.4 °F 67% 29.93 in 10.0 mi West 5.8 mph - N/A   Clear
1:35 AM 57.2 °F 44.6 °F 63% 29.93 in 10.0 mi West 5.8 mph - N/A   Clear
1:55 AM 57.2 °F 44.6 °F 63% 29.93 in 10.0 mi WSW 4.6 mph - N/A   Clear
2:15 AM 55.4 °F 44.6 °F 67% 29.93 in 10.0 mi Calm Calm - N/A   Clear
2:35 AM 55.4 °F 44.6 °F 67% 29.92 in 10.0 mi Calm Calm - N/A   Clear
2:55 AM 53.6 °F 44.6 °F 72% 29.92 in 10.0 mi Calm Calm - N/A   Clear
3:15 AM 53.6 °F 44.6 °F 72% 29.92 in 10.0 mi Calm Calm - N/A   Clear
3:35 AM 53.6 °F 44.6 °F 72% 29.91 in 10.0 mi Calm Calm - N/A   Clear
3:55 AM 53.6 °F 44.6 °F 72% 29.90 in 10.0 mi Calm Calm - N/A   Clear
4:15 AM 53.6 °F 44.6 °F 72% 29.90 in 10.0 mi Calm Calm - N/A   Clear
4:35 AM 53.6 °F 44.6 °F 72% 29.90 in 10.0 mi Calm Calm - N/A   Scattered Clouds
4:55 AM 51.8 °F 44.6 °F 76% 29.89 in 10.0 mi Calm Calm - N/A   Scattered Clouds
5:15 AM 51.8 °F 44.6 °F 76% 29.89 in 10.0 mi NNW 3.5 mph - N/A   Clear
5:35 AM 51.8 °F 44.6 °F 76% 29.89 in 10.0 mi Calm Calm - N/A   Clear
5:55 AM 51.8 °F 44.6 °F 76% 29.89 in 10.0 mi Calm Calm - N/A   Clear
6:35 AM 51.8 °F 44.6 °F 76% 29.89 in 10.0 mi Calm Calm - N/A   Scattered Clouds
7:15 AM 53.6 °F 44.6 °F 72% 29.88 in 10.0 mi Calm Calm - N/A   Scattered Clouds
7:35 AM 53.6 °F 44.6 °F 72% 29.88 in 10.0 mi Calm Calm - N/A   Mostly Cloudy
7:55 AM 53.6 °F 44.6 °F 72% 29.88 in 10.0 mi WNW 3.5 mph - N/A   Overcast
8:15 AM 53.6 °F 44.6 °F 72% 29.88 in 10.0 mi West 3.5 mph - N/A   Mostly Cloudy
8:35 AM 55.4 °F 44.6 °F 67% 29.89 in 10.0 mi West 3.5 mph - N/A   Mostly Cloudy
8:55 AM 57.2 °F 44.6 °F 63% 29.89 in 10.0 mi West 4.6 mph - N/A   Overcast
9:15 AM 57.2 °F 44.6 °F 63% 29.89 in 10.0 mi West 4.6 mph - N/A   Overcast
9:35 AM 59.0 °F 44.6 °F 59% 29.90 in 10.0 mi West 4.6 mph - N/A   Overcast
10:15 AM 59.0 °F 46.4 °F 63% 29.90 in 10.0 mi West 4.6 mph - N/A   Overcast
10:35 AM 59.0 °F 46.4 °F 63% 29.90 in 10.0 mi West 6.9 mph - N/A   Overcast
10:55 AM 59.0 °F 46.4 °F 63% 29.90 in 10.0 mi West 8.1 mph - N/A   Overcast
11:15 AM 59.0 °F 48.2 °F 67% 29.89 in 10.0 mi West 8.1 mph - N/A   Overcast
11:35 AM 60.8 °F 48.2 °F 63% 29.88 in 10.0 mi West 11.5 mph - N/A   Overcast
12:15 PM 62.6 °F 50.0 °F 63% 29.88 in 10.0 mi West 15.0 mph 20.7 mph N/A   Overcast
12:35 PM 62.6 °F 50.0 °F 63% 29.87 in 10.0 mi West 15.0 mph 24.2 mph N/A Rain Light Rain
1:15 PM 64.4 °F 50.0 °F 59% 29.85 in 10.0 mi West 12.7 mph 20.7 mph N/A   Mostly Cloudy
1:35 PM 64.4 °F 50.0 °F 59% 29.85 in 10.0 mi West 21.9 mph 27.6 mph N/A   Overcast
1:55 PM 62.6 °F 50.0 °F 63% 29.83 in 10.0 mi West 11.5 mph 19.6 mph N/A   Overcast
2:15 PM 60.8 °F 51.8 °F 72% 29.83 in 10.0 mi West 13.8 mph - N/A   Overcast
2:35 PM 62.6 °F 51.8 °F 68% 29.84 in 10.0 mi West 8.1 mph 16.1 mph N/A Rain Light Rain
2:55 PM 62.6 °F 51.8 °F 68% 29.84 in 10.0 mi WNW 8.1 mph - N/A Rain Light Rain
3:15 PM 62.6 °F 51.8 °F 68% 29.84 in 10.0 mi WNW 8.1 mph - N/A   Overcast
3:35 PM 60.8 °F 51.8 °F 72% 29.85 in 7.0 mi WNW 8.1 mph - 0.01 in Rain Light Rain
3:55 PM 60.8 °F 53.6 °F 77% 29.86 in 10.0 mi WNW 5.8 mph - 0.01 in Rain Light Rain
4:15 PM 59.0 °F 53.6 °F 82% 29.86 in 10.0 mi WNW 9.2 mph 16.1 mph 0.01 in   Light Drizzle
4:35 PM 59.0 °F 53.6 °F 82% 29.87 in 10.0 mi WNW 8.1 mph - 0.01 in   Overcast
4:55 PM 59.0 °F 53.6 °F 82% 29.87 in 10.0 mi WNW 8.1 mph - 0.01 in   Overcast
5:15 PM 59.0 °F 53.6 °F 82% 29.87 in 10.0 mi West 6.9 mph - N/A   Overcast
5:35 PM 59.0 °F 53.6 °F 82% 29.88 in 10.0 mi West 6.9 mph - N/A   Overcast
5:55 PM 59.0 °F 53.6 °F 82% 29.89 in 10.0 mi WNW 6.9 mph - N/A   Overcast
6:15 PM 55.4 °F 51.8 °F 88% 29.90 in 10.0 mi North 11.5 mph 16.1 mph 0.01 in Rain Rain
6:35 PM 53.6 °F 50.0 °F 88% 29.92 in 5.0 mi North 10.4 mph 19.6 mph 0.01 in   Light Drizzle
6:55 PM 53.6 °F 50.0 °F 88% 29.93 in 5.0 mi North 10.4 mph 16.1 mph 0.02 in   Drizzle
7:15 PM 53.6 °F 50.0 °F 88% 29.94 in 10.0 mi NNW 8.1 mph - N/A Rain Rain
7:35 PM 53.6 °F 50.0 °F 88% 29.95 in 7.0 mi North 9.2 mph - 0.01 in Rain Rain
7:55 PM 51.8 °F 50.0 °F 94% 29.96 in 5.0 mi North 8.1 mph - 0.02 in   Drizzle
8:15 PM 51.8 °F 48.2 °F 88% 29.96 in 10.0 mi NNW 6.9 mph - N/A   Overcast
8:35 PM 51.8 °F 46.4 °F 82% 29.97 in 10.0 mi North 3.5 mph - N/A   Light Drizzle
9:15 PM 51.8 °F 46.4 °F 82% 29.99 in 7.0 mi Calm Calm - N/A Rain Light Rain
9:35 PM 50.0 °F 46.4 °F 87% 29.99 in 4.0 mi Calm Calm - 0.01 in Rain Light Rain
9:55 PM 50.0 °F 46.4 °F 87% 29.99 in 10.0 mi Calm Calm - 0.02 in   Light Drizzle
10:15 PM 50.0 °F 48.2 °F 94% 30.00 in 10.0 mi Calm Calm - N/A   Light Drizzle
10:35 PM 50.0 °F 46.4 °F 87% 30.01 in 10.0 mi North 3.5 mph - N/A   Drizzle
10:55 PM 50.0 °F 46.4 °F 87% 30.02 in 7.0 mi ENE 4.6 mph - 0.01 in   Light Drizzle
11:15 PM 48.2 °F 44.6 °F 87% 30.02 in 10.0 mi ENE 4.6 mph - N/A   Drizzle
11:35 PM 48.2 °F 44.6 °F 87% 30.02 in 10.0 mi ENE 5.8 mph - N/A   Drizzle
11:55 PM 46.4 °F 42.8 °F 87% 30.02 in 10.0 mi Calm Calm - 0.01 in   Light Drizzle